Location: Dugenta
(41.1333°N, 14.4500°E)
Time: 13:21:24
(UTC+00:00)

Cosmos 2322 Rocket - Pass Details

Date: 03 March 2021
Orbit: 832 x 852 km, 71.0° (Epoch: 20 April)

Event Time Altitude Azimuth Distance (km) Brightness Sun altitude
Rises 17:21:29 0° 194° (SSW) 3,360 5.6 -5.7°
Reaches altitude 10° 17:23:54 10° 192° (SSW) 2,430 4.8 -6.1°
Maximum altitude 17:29:26 68° 110° (ESE) 892 2.2 -7.2°
Drops below altitude 10° 17:35:00 10° 29° (NNE) 2,450 4.3 -8.2°
Sets 17:37:28 0° 27° (NNE) 3,391 5.1 -8.7°
